Weather History for New Castle, PA

Change the Weather History Date:

Sunday, December 1, 2013

  Actual Average Record
Temperature  
Mean Temperature 31 °F -  
Max Temperature 39 °F 45 °F 68 °F (1991)
Min Temperature 23 °F 28 °F 2 °F (1929)
Degree Days  
Heating Degree Days 34    
Moisture  
Dew Point 26 °F    
Average Humidity 73    
Maximum Humidity 89    
Minimum Humidity 63    
Precipitation  
Precipitation 0.00 in - - ()
Sea Level Pressure  
Sea Level Pressure 30.14 in    
Wind  
Wind Speed 1 mph (SSW)    
Max Wind Speed 5 mph    
Max Gust Speed -    
Visibility 10 miles    
Events      
Averages and records for this station are not official NWS values.
T = Trace of Precipitation, MM = Missing Value Source: NWS Daily Summary

Daily Weather History Graph

Daily Weather History Graph

Search for Another Location

Airport:

Trip Planner

Search our weather history database for the weather conditions in past years. The results will help you decide how hot, cold, wet, or windy it might be!

Date:

Astronomy

Dec. 01, 2013 Rise Set
Actual Time 7:27 AM EST 4:53 PM EST
Civil Twilight 6:56 AM EST 5:24 PM EST
Nautical Twilight 6:22 AM EST 5:58 PM EST
Astronomical Twilight 5:49 AM EST 6:31 PM EST
Moon 5:43 AM EST (12/1) 4:03 PM EST (12/1)
Length of Visible Light 10h 27m
Length of Day
9h 26m
Waning Crescent, 2% of the Moon is Illuminated
Dec 1
Waning Crescent
Dec 2
New
Dec 9
First Quarter
Dec 17
Full
Dec 25
Last Quarter

Hourly Weather History & Observations

Time (EST) Temp. Windchill Dew Point Humidity Pressure Visibility Wind Dir Wind Speed Gust Speed Precip Events Conditions
12:56 AM 24.1 °F - 20.1 °F 85% 30.27 in 10.0 mi Calm Calm - N/A   Clear
1:56 AM 23.0 °F - 20.1 °F 89% 30.26 in 10.0 mi Calm Calm - N/A   Mostly Cloudy
2:56 AM 29.1 °F - 23.0 °F 78% 30.24 in 10.0 mi Calm Calm - N/A   Partly Cloudy
3:56 AM 28.0 °F - 23.0 °F 81% 30.22 in 10.0 mi Calm Calm - N/A   Clear
4:56 AM 29.1 °F 25.4 °F 23.0 °F 78% 30.20 in 10.0 mi South 3.5 mph - N/A   Mostly Cloudy
5:56 AM 31.1 °F - 24.1 °F 75% 30.19 in 10.0 mi Calm Calm - N/A   Overcast
6:56 AM 30.0 °F - 24.1 °F 79% 30.20 in 10.0 mi Calm Calm - N/A   Mostly Cloudy
7:56 AM 32.0 °F 27.5 °F 25.2 °F 76% 30.19 in 10.0 mi South 4.6 mph - N/A   Overcast
8:56 AM 34.0 °F 31.0 °F 26.1 °F 73% 30.18 in 10.0 mi South 3.5 mph - N/A   Overcast
9:56 AM 34.9 °F 30.8 °F 27.1 °F 73% 30.18 in 10.0 mi SSW 4.6 mph - N/A   Overcast
10:56 AM 36.9 °F - 27.1 °F 68% 30.17 in 10.0 mi Calm Calm - N/A   Mostly Cloudy
11:56 AM 37.9 °F 34.4 °F 27.1 °F 65% 30.14 in 10.0 mi Variable 4.6 mph - N/A   Overcast
12:56 PM 38.8 °F - 28.0 °F 65% 30.13 in 10.0 mi Calm Calm - N/A   Overcast
1:56 PM 38.8 °F - 28.0 °F 65% 30.11 in 10.0 mi Calm Calm - N/A   Overcast
2:56 PM 39.9 °F - 28.0 °F 63% 30.09 in 10.0 mi Calm Calm - N/A   Partly Cloudy
3:56 PM 38.8 °F 36.5 °F 28.0 °F 65% 30.09 in 10.0 mi SW 3.5 mph - N/A   Overcast
4:56 PM 38.8 °F - 28.0 °F 65% 30.08 in 10.0 mi Calm Calm - N/A   Overcast
5:56 PM 37.9 °F - 28.0 °F 68% 30.08 in 10.0 mi Calm Calm - N/A   Overcast
6:56 PM 36.9 °F - 29.1 °F 74% 30.09 in 10.0 mi Calm Calm - N/A   Overcast
7:56 PM 36.9 °F - 28.0 °F 70% 30.08 in 10.0 mi Calm Calm - N/A   Overcast
8:56 PM 36.9 °F - 28.0 °F 70% 30.07 in 10.0 mi Calm Calm - N/A   Overcast
9:56 PM 36.9 °F - 28.0 °F 70% 30.06 in 10.0 mi Calm Calm - N/A   Overcast
10:56 PM 36.9 °F - 28.0 °F 70% 30.05 in 10.0 mi Calm Calm - N/A   Overcast
11:56 PM 34.9 °F - 28.0 °F 76% 30.05 in 10.0 mi Calm Calm - N/A   Overcast